Chambery, France

5:29 PM CEST on September 24, 2017 (GMT +0200)
Aix-les-Bains

Weather History for LFLB - February, 2014

Change the Weather History Date:

Monday, February 24, 2014

  Actual Average Record
Temperature  
Mean Temperature 43 °F -  
Max Temperature 58 °F 52 °F 59 °F (1997)
Min Temperature 28 °F 34 °F 19 °F (2005)
Degree Days  
Heating Degree Days 22    
Moisture  
Dew Point 34 °F    
Average Humidity 75    
Maximum Humidity 100    
Minimum Humidity 30    
Precipitation  
Precipitation 0.00 in - - ()
Sea Level Pressure  
Sea Level Pressure 30.07 in    
Wind  
Wind Speed 1 mph ()    
Max Wind Speed 6 mph    
Max Gust Speed -    
Visibility 6.8 miles    
Events Fog    
Averages and records for this station are not official NWS values.
T = Trace of Precipitation, MM = Missing Value Source: Averaged Metar Reports

Daily Weather History Graph

Daily Weather History Graph

Search for Another Location

Airport or City:

Trip Planner

Search our weather history database for the weather conditions in past years. The results will help you decide how hot, cold, wet, or windy it might be!

Date:

Astronomy

Feb. 24, 2014 Rise Set
Actual Time 7:24 AM CET 6:15 PM CET
Civil Twilight 6:54 AM CET 6:46 PM CET
Nautical Twilight 6:19 AM CET 7:20 PM CET
Astronomical Twilight 5:45 AM CET 7:54 PM CET
Moon 3:16 AM CET 12:51 PM CET
Length of Visible Light 11h 51m
Length of Day
10h 51m
Waning Crescent, 31% of the Moon is Illuminated
Feb 24
Waning Crescent
Mar 1
New
Mar 8
First Quarter
Mar 16
Full
Mar 24
Last Quarter

Hourly Weather History & Observations

Time (CET) Temp. Windchill Dew Point Humidity Pressure Visibility Wind Dir Wind Speed Gust Speed Precip Events Conditions
12:00 AM 36 °F - 35 °F 94% 30.14 in 6 mi SSE 1.2 mph - -   Clear
12:00 AM 37.4 °F - 35.6 °F 93% 30.09 in 6.2 mi Calm Calm - N/A   Unknown
12:30 AM 35.6 °F - 35.6 °F 100% 30.09 in 5.6 mi SE 2.3 mph - N/A   Unknown
1:00 AM 36 °F - 35 °F 92% 30.14 in 7 mi Calm Calm - -   Clear
1:00 AM 35.6 °F - 33.8 °F 93% 30.09 in 6.2 mi Calm Calm - N/A   Unknown
1:30 AM 35.6 °F - 33.8 °F 93% 30.09 in 6.2 mi SE 1.2 mph - N/A   Unknown
2:00 AM 35 °F - 34 °F 93% 30.14 in 0 mi Calm Calm - - Fog Partial Fog
2:00 AM 35.6 °F - 33.8 °F 93% 30.09 in 0.4 mi Calm Calm - N/A Fog Fog
2:30 AM 33.8 °F - 32.0 °F 93% 30.09 in - SSE 1.2 mph - N/A   Mist
3:00 AM 34 °F - 33 °F 96% 30.13 in 1 mi SSE 1.2 mph - -   Mist
3:00 AM 33.8 °F - 33.8 °F 100% 30.06 in 0.6 mi Calm Calm - N/A Fog Fog
3:30 AM 32.0 °F - 32.0 °F 100% 30.06 in 0.7 mi Calm Calm - N/A   Mist
4:00 AM 32 °F - 31 °F 97% 30.12 in 3 mi Calm Calm - -   Clear
4:00 AM 32.0 °F - 32.0 °F 100% 30.06 in 3.1 mi Calm Calm - N/A   Mist
4:30 AM 33.8 °F - 32.0 °F 93% 30.06 in 4.3 mi Calm Calm - N/A   Unknown
5:00 AM 31 °F - 30 °F 96% 30.12 in 1 mi South 1.2 mph - -   Mist
5:00 AM 32.0 °F - 30.2 °F 93% 30.06 in 0.6 mi South 1.2 mph - N/A Fog Patches of Fog
5:30 AM 32.0 °F - 32.0 °F 100% 30.06 in - Calm Calm - N/A   Mist
6:00 AM 31 °F - 29 °F 92% 30.12 in 6 mi ESE 2.3 mph - -  
6:00 AM 30.2 °F - 30.2 °F 100% 30.06 in - Variable 2.3 mph - N/A   Clear
6:30 AM 32.0 °F - 30.2 °F 93% 30.06 in - Calm Calm - N/A   Clear
7:00 AM 29 °F - 28 °F 92% 30.13 in 6 mi SSE 2.3 mph - -  
7:00 AM 30.2 °F - 28.4 °F 93% 30.06 in - South 2.3 mph - N/A   Clear
7:30 AM 28.4 °F 24.6 °F 28.4 °F 100% 30.06 in - SSE 3.5 mph - N/A   Clear
8:00 AM 31 °F - 30 °F 95% 30.13 in 9 mi Calm Calm - -   Scattered Clouds
8:00 AM 30.2 °F - 30.2 °F 100% 30.06 in 6.2 mi Calm Calm - N/A   Partly Cloudy
8:30 AM 32.0 °F - 30.2 °F 93% 30.09 in 6.2 mi Calm Calm - N/A   Partly Cloudy
9:00 AM 37 °F - 37 °F 99% 30.13 in 9 mi Calm Calm - -  
9:00 AM 35.6 °F - 35.6 °F 100% 30.09 in - Calm Calm - N/A   Clear
10:00 AM 41 °F - 37 °F 80% 30.12 in 9 mi ESE 1.2 mph - -  
10:00 AM 41.0 °F - 37.4 °F 87% 30.09 in - Calm Calm - N/A   Clear
10:30 AM 42.8 °F - 37.4 °F 81% 30.06 in - Variable 1.2 mph - N/A   Clear
11:00 AM 46 °F - 37 °F 62% 30.11 in 9 mi Calm Calm - -  
11:30 AM 48.2 °F - 35.6 °F 62% 30.06 in - Variable 1.2 mph - N/A   Clear
12:00 PM 49 °F - 35 °F 47% 30.10 in 9 mi North 3.5 mph - -  
12:00 PM 50.0 °F - 35.6 °F 58% 30.06 in - Variable 2.3 mph - N/A   Clear
12:30 PM 50.0 °F - 35.6 °F 58% 30.06 in - North 5.8 mph - N/A   Clear
1:00 PM 50 °F - 37 °F 51% 30.08 in 9 mi NNW 4.6 mph - -  
1:00 PM 50.0 °F - 37.4 °F 62% 30.06 in - NNW 4.6 mph - N/A   Clear
1:30 PM 51.8 °F - 37.4 °F 58% 30.06 in - North 4.6 mph - N/A   Clear
2:00 PM 53 °F - 34 °F 36% 30.06 in 9 mi North 5.8 mph - -  
2:00 PM 53.6 °F - 33.8 °F 47% 30.04 in - North 4.6 mph - N/A   Clear
2:30 PM 55.4 °F - 33.8 °F 44% 30.04 in - North 4.6 mph - N/A   Clear
3:00 PM 56 °F - 33 °F 30% 30.03 in 16 mi North 3.5 mph - -  
3:00 PM 55.4 °F - 33.8 °F 44% 30.01 in - Variable 3.5 mph - N/A   Clear
3:30 PM 57.2 °F - 32.0 °F 38% 30.01 in 6.2 mi North 3.5 mph - N/A   Partly Cloudy
4:00 PM 56 °F - 34 °F 31% 30.02 in 16 mi North 4.6 mph - -   Scattered Clouds
4:00 PM 55.4 °F - 33.8 °F 44% 30.01 in 6.2 mi North 4.6 mph - N/A   Partly Cloudy
4:30 PM 55.4 °F - 35.6 °F 47% 30.01 in 6.2 mi North 3.5 mph - N/A   Partly Cloudy
5:00 PM 50 °F - 37 °F 50% 30.02 in 16 mi North 2.3 mph - -   Scattered Clouds
5:00 PM 51.8 °F - 37.4 °F 58% 30.01 in 6.2 mi Variable 2.3 mph - N/A   Partly Cloudy
5:30 PM 50.0 °F - 35.6 °F 58% 30.01 in 6.2 mi Variable 3.5 mph - N/A   Partly Cloudy
6:00 PM 54 °F - 35 °F 36% 30.03 in 16 mi West 4.6 mph - -   Scattered Clouds
6:00 PM 53.6 °F - 33.8 °F 47% 30.01 in 6.2 mi West 4.6 mph - N/A   Partly Cloudy
6:30 PM 50.0 °F - 35.6 °F 58% 30.01 in 6.2 mi Variable 1.2 mph - N/A   Unknown
7:00 PM 48 °F - 36 °F 51% 30.05 in 11 mi SE 4.6 mph - -   Clear
7:00 PM 48.2 °F - 35.6 °F 62% 30.04 in 6.2 mi SE 4.6 mph - N/A   Unknown
7:30 PM 48.2 °F - 35.6 °F 62% 30.04 in 6.2 mi Calm Calm - N/A   Unknown
8:00 PM 45 °F - 35 °F 57% 30.06 in 25 mi Calm Calm - -   Clear
8:00 PM 44.6 °F - 35.6 °F 71% 30.04 in 6.2 mi Calm Calm - N/A   Unknown
8:30 PM 44.6 °F - 35.6 °F 71% 30.04 in 6.2 mi Calm Calm - N/A   Unknown
9:00 PM 41 °F - 35 °F 73% 30.07 in 22 mi Calm Calm - -   Clear
9:00 PM 41.0 °F - 35.6 °F 81% 30.04 in 6.2 mi Calm Calm - N/A   Unknown
9:30 PM 39.2 °F - 35.6 °F 87% 30.04 in 6.2 mi Variable 2.3 mph - N/A   Unknown
10:00 PM 40 °F - 36 °F 78% 30.09 in 12 mi South 1.2 mph - -   Clear
10:00 PM 39.2 °F - 35.6 °F 87% 30.04 in 6.2 mi Calm Calm - N/A   Unknown
10:30 PM 37.4 °F - 33.8 °F 87% 30.04 in 6.2 mi Variable 1.2 mph - N/A   Unknown
11:00 PM 38 °F - 35 °F 82% 30.10 in 14 mi SSW 2.3 mph - -   Clear
11:00 PM 37.4 °F - 33.8 °F 87% 30.06 in 6.2 mi Variable 2.3 mph - N/A   Unknown
11:30 PM 37.4 °F - 33.8 °F 87% 30.06 in 6.2 mi Variable 2.3 mph - N/A   Unknown